FW0610 Weather Reports


time (UTC)temp
C
wind
direction
speed
KPH
gust
KPH
rain 1hr
cm
rain 24hr
cm
rain mn
cm
humidity
%
barometer
mb
20260509113039 -1 0 0.0 0.0 0.00 0.00 0.00 82 1013.1
20260509111558 -2 0 0.0 0.0 0.00 0.00 0.00 84 1013.1
20260509110042 -3 0 0.0 0.0 0.00 0.00 0.00 84 1013.1
20260509104545 -3 0 0.0 0.0 0.00 0.00 0.00 87 1013.0
20260509103048 -4 0 0.0 0.0 0.00 0.00 0.00 88 1012.9
20260509101608 -5 0 0.0 0.0 0.00 0.00 0.00 88 1012.9
20260509100042 -5 0 0.0 0.0 0.00 0.00 0.00 89 1012.7
20260509094539 -5 0 0.0 0.0 0.00 0.00 0.00 89 1012.4
20260509093043 -5 0 0.0 0.0 0.00 0.00 0.00 89 1012.2
20260509091542 -5 0 0.0 0.0 0.00 0.00 0.00 89 1012.1
20260509090041 -5 0 0.0 0.0 0.00 0.00 0.00 89 1012.2
20260509084538 -4 0 0.0 0.0 0.00 0.00 0.00 89 1012.1
20260509083042 -4 0 0.0 0.0 0.00 0.00 0.00 89 1012.1
20260509081543 -4 0 0.0 0.0 0.00 0.00 0.00 89 1012.2
20260509080038 -4 0 0.0 0.0 0.00 0.00 0.00 89 1012.3
20260509074544 -4 0 0.0 0.0 0.00 0.00 0.00 89 1012.3
20260509073054 -3 0 0.0 0.0 0.00 0.00 0.00 89 1012.3
20260509071547 -3 0 0.0 0.0 0.00 0.00 0.00 89 1012.2
20260509070045 -3 0 0.0 0.0 0.00 0.00 0.00 89 1012.2
20260509064546 -3 0 0.0 0.0 0.00 0.00 0.00 89 1012.2
20260509063038 -3 0 0.0 0.0 0.00 0.00 0.00 89 1012.3
20260509061536 -3 0 0.0 0.0 0.00 0.00 0.00 89 1012.2
20260509060039 -3 0 0.0 0.0 0.00 0.00 0.00 89 1012.1
20260509054556 -3 0 0.0 0.0 0.00 0.00 0.00 89 1011.9
20260509053041 -2 0 0.0 0.0 0.00 0.00 0.00 89 1012.0
20260509051541 -2 0 0.0 0.0 0.00 0.00 0.00 89 1011.9
20260509050039 -2 0 0.0 3.2 0.00 0.00 0.00 89 1011.9
20260509044536 -2 0 0.0 0.0 0.00 0.00 0.00 88 1011.9
20260509043045 -2 0 0.0 0.0 0.00 0.00 0.00 88 1011.7
20260509041608 -2 0 0.0 0.0 0.00 0.00 0.00 88 1011.7
20260509040041 -1 0 0.0 0.0 0.00 0.00 0.00 88 1011.7
20260509034539 -1 0 0.0 0.0 0.00 0.00 0.00 88 1011.5
20260509033044 -1 0 0.0 0.0 0.00 0.00 0.00 87 1011.4
20260509031544 -1 0 0.0 0.0 0.00 0.00 0.00 86 1011.3
20260509030040 0 0 0.0 0.0 0.00 0.00 0.00 85 1011.1
20260509024540 0 0 0.0 0.0 0.00 0.00 0.00 84 1011.1
20260509023046 0 0 0.0 0.0 0.00 0.00 0.00 82 1011.1
20260509021538 0 0 0.0 0.0 0.00 0.00 0.00 83 1011.0
20260509020045 1 0 0.0 0.0 0.00 0.00 0.00 82 1010.9
20260509014542 1 0 0.0 0.0 0.00 0.00 0.00 80 1010.8
20260509013043 1 0 0.0 0.0 0.00 0.00 0.00 80 1010.7
20260509011541 2 0 0.0 0.0 0.00 0.00 0.00 76 1010.6
20260509010041 2 0 0.0 0.0 0.00 0.00 0.00 75 1010.4
20260509004538 3 0 0.0 0.0 0.00 0.00 0.00 74 1010.0
20260509003037 4 0 0.0 0.0 0.00 0.00 0.00 71 1009.8
20260509001542 5 0 0.0 0.0 0.00 0.00 0.00 66 1009.6
20260509000041 5 0 0.0 0.0 0.00 0.00 0.00 62 1009.5
20260508234541 6 0 0.0 4.8 0.00 0.00 0.00 55 1009.5
20260508233039 7 0 0.0 3.2 0.00 0.00 0.00 50 1009.3
20260508231537 7 0 0.0 11.3 0.00 0.00 0.00 48 1009.3
20260508230041 7 269 0.0 12.9 0.00 0.00 0.00 46 1009.3
20260508224535 7 0 1.6 14.5 0.00 0.00 0.00 49 1009.3
20260508223039 7 222 1.6 12.9 0.00 0.00 0.00 48 1009.2
20260508221539 7 0 3.2 14.5 0.00 0.00 0.00 47 1009.2
20260508220041 8 252 6.4 14.5 0.00 0.00 0.00 45 1009.3
20260508214537 8 74 1.6 19.3 0.00 0.00 0.00 47 1009.0
20260508213044 8 281 3.2 17.7 0.00 0.00 0.00 46 1009.0
20260508211541 8 302 3.2 12.9 0.00 0.00 0.00 47 1008.9
20260508210040 8 227 6.4 17.7 0.00 0.00 0.00 46 1008.9
20260508204540 8 241 4.8 19.3 0.00 0.00 0.00 45 1008.7
20260508203040 8 267 6.4 19.3 0.00 0.00 0.00 47 1008.8
20260508201538 9 283 4.8 19.3 0.00 0.00 0.00 45 1008.6
20260508200100 8 124 11.3 20.9 0.00 0.00 0.00 44 1008.6
20260508194542 8 256 8.0 24.1 0.00 0.00 0.00 47 1008.7
20260508193046 8 257 6.4 22.5 0.00 0.00 0.00 47 1008.8
20260508191539 7 265 4.8 20.9 0.00 0.00 0.00 47 1008.7
20260508190036 7 271 9.7 22.5 0.00 0.00 0.00 47 1008.7
20260508184542 7 258 6.4 22.5 0.00 0.00 0.00 47 1008.6
20260508183047 7 296 9.7 22.5 0.00 0.00 0.00 48 1008.6
20260508181549 7 198 6.4 19.3 0.00 0.00 0.00 49 1008.6
20260508180038 7 270 4.8 22.5 0.00 0.00 0.00 50 1008.5
20260508174537 7 248 8.0 22.5 0.00 0.00 0.00 51 1008.4
20260508173037 7 325 6.4 20.9 0.00 0.00 0.00 53 1008.4
20260508171543 7 179 9.7 19.3 0.00 0.00 0.00 49 1008.2
20260508170053 7 248 4.8 17.7 0.00 0.00 0.00 52 1008.1
20260508164546 8 273 11.3 24.1 0.00 0.00 0.00 50 1008.0
20260508163037 8 202 6.4 22.5 0.00 0.00 0.00 58 1008.1
20260508161536 7 268 9.7 19.3 0.00 0.00 0.00 57 1008.2
20260508160043 7 227 8.0 19.3 0.00 0.00 0.00 60 1008.1
20260508154603 6 250 6.4 19.3 0.00 0.00 0.00 64 1008.4
20260508153040 6 302 6.4 19.3 0.00 0.00 0.00 65 1008.4
20260508151540 6 242 9.7 22.5 0.00 0.00 0.00 64 1008.3
20260508150040 6 274 8.0 24.1 0.00 0.00 0.00 65 1008.4
20260508144542 6 234 8.0 19.3 0.00 0.00 0.00 64 1008.6
20260508143042 6 292 4.8 20.9 0.00 0.00 0.00 64 1008.3
20260508141543 6 238 9.7 20.9 0.00 0.00 0.00 66 1008.4
20260508140042 5 279 12.9 19.3 0.00 0.00 0.00 66 1008.3
20260508134555 5 290 3.2 16.1 0.00 0.00 0.00 70 1008.3
20260508133049 5 272 6.4 17.7 0.00 0.00 0.00 70 1008.5
20260508131539 5 227 6.4 14.5 0.00 0.00 0.00 71 1008.3
20260508130042 5 275 4.8 20.9 0.00 0.00 0.00 73 1008.3
20260508124539 5 248 6.4 22.5 0.00 0.00 0.00 77 1008.1
20260508123047 3 104 0.0 6.4 0.00 0.00 0.00 87 1008.1
20260508121538 2 149 1.6 4.8 0.00 0.00 0.00 88 1008.1
20260508120043 1 0 0.0 3.2 0.00 0.00 0.00 89 1008.0
20260508114542 1 0 0.0 1.6 0.00 0.00 0.00 88 1008.0